Location: Central Falls
(41.8900°N, 71.3929°W)
Time: 15:23:18
(UTC+00:00)

Vanguard 2 Rocket - Pass Details

Date: 10 December 2023
Orbit: 554 x 3310 km, 32.9° (Epoch: 22 February)

Event Time Altitude Azimuth Distance (km) Brightness Sun altitude
Rises 00:24:46 0° 281° (W) 7,249 12.5 -34.6°
Reaches altitude 10° 00:30:32 10° 272° (W) 6,269 11.9 -35.6°
Maximum altitude 00:46:06 30° 221° (SW) 4,366 10.5 -38.5°
Drops below altitude 10° 00:58:33 10° 167° (SSE) 4,951 10.5 -40.9°
Enters shadow 00:59:08 - 166° (SSE) 5,035 10.5 -41.0°
